Green Bay, WI

5:05 PM CST on February 24, 2017 (GMT -0600)
Austin Straubel International

Weather History for KGRB - December, 2012

Change the Weather History Date:

Friday, December 14, 2012

  Actual Average Record
Temperature  
Mean Temperature 30 °F 22 °F  
Max Temperature 39 °F 29 °F 55 °F (1975)
Min Temperature 20 °F 15 °F -17 °F (1985)
Degree Days  
Heating Degree Days 35 43  
Month to date heating degree days 432 572  
Since 1 July heating degree days 2065 2312  
Cooling Degree Days 0 0  
Month to date cooling degree days 0 0  
Year to date cooling degree days 786 398  
Moisture  
Dew Point 27 °F    
Average Humidity 86    
Maximum Humidity 96    
Minimum Humidity 76    
Precipitation  
Precipitation 0.00 in 0.04 in 1.94 in (1891)
Month to date precipitation 0.58 0.77  
Year to date precipitation 29.57 28.78  
Snow  
Snow 0.00 in 0.40 in 7.80 in (1989)
Month to date snowfall 4.2 5.8  
Since 1 July snowfall 5.7 10.0  
Snow Depth 1.00 in    
Sea Level Pressure  
Sea Level Pressure 30.17 in    
Wind  
Wind Speed 6 mph (NE)    
Max Wind Speed 13 mph    
Max Gust Speed 16 mph    
Visibility 7 miles    
Events      
T = Trace of Precipitation, MM = Missing Value Source: NWS Daily Summary

Daily Weather History Graph

Daily Weather History Graph

Search for Another Location

Airport or City:

Trip Planner

Search our weather history database for the weather conditions in past years. The results will help you decide how hot, cold, wet, or windy it might be!

Date:

Astronomy

Dec. 14, 2012 Rise Set
Actual Time 7:21 AM CST 4:13 PM CST
Civil Twilight 6:48 AM CST 4:46 PM CST
Nautical Twilight 6:11 AM CST 5:23 PM CST
Astronomical Twilight 5:36 AM CST 5:58 PM CST
Moon 8:24 AM CST (12/14) 6:08 PM CST (12/14)
Length of Visible Light 9h 58m
Length of Day
8h 51m
Waxing Crescent, 3% of the Moon is Illuminated
Dec 14
Waxing Crescent
Dec 19
First Quarter
Dec 28
Full
Jan 4
Last Quarter
Jan 11
New

Hourly Weather History & Observations

Time (CST) Temp. Windchill Dew Point Humidity Pressure Visibility Wind Dir Wind Speed Gust Speed Precip Events Conditions
12:53 AM 21.9 °F - 19.0 °F 89% 30.16 in 8.0 mi Calm Calm - N/A   Clear
1:53 AM 21.0 °F 16.2 °F 19.0 °F 92% 30.17 in 8.0 mi NW 3.5 mph - N/A   Clear
2:53 AM 21.0 °F - 19.0 °F 92% 30.18 in 8.0 mi Calm Calm - N/A   Clear
3:53 AM 21.9 °F - 19.0 °F 89% 30.19 in 7.0 mi Calm Calm - N/A   Clear
4:53 AM 21.9 °F - 19.0 °F 89% 30.20 in 8.0 mi Calm Calm - N/A   Clear
5:53 AM 21.0 °F 16.2 °F 18.0 °F 88% 30.20 in 7.0 mi North 3.5 mph - N/A   Clear
6:53 AM 23.0 °F 17.0 °F 19.9 °F 88% 30.21 in 7.0 mi NNE 4.6 mph - N/A   Partly Cloudy
7:08 AM 21.0 °F 14.6 °F 18.0 °F 88% 30.18 in 6.0 mi North 4.6 mph - N/A   Scattered Clouds
7:31 AM 24.1 °F 16.0 °F 21.0 °F 88% 30.18 in 5.0 mi North 6.9 mph - N/A   Mostly Cloudy
7:53 AM 27.0 °F 18.7 °F 25.0 °F 92% 30.22 in 4.0 mi North 8.1 mph - N/A   Overcast
8:53 AM 30.9 °F 22.8 °F 28.0 °F 89% 30.23 in 5.0 mi NE 9.2 mph - N/A   Scattered Clouds
9:53 AM 33.1 °F 27.7 °F 28.9 °F 85% 30.25 in 6.0 mi NE 5.8 mph - N/A   Clear
10:53 AM 36.0 °F 31.1 °F 30.0 °F 79% 30.25 in 7.0 mi ENE 5.8 mph - N/A   Clear
11:40 AM 37.0 °F 32.4 °F 30.9 °F 79% 30.20 in 7.0 mi ENE 5.8 mph - N/A   Mostly Cloudy
11:53 AM 37.0 °F 31.0 °F 30.9 °F 79% 30.23 in 7.0 mi NE 8.1 mph - N/A   Overcast
12:26 PM 37.0 °F 31.0 °F 30.9 °F 79% 30.18 in 7.0 mi NE 8.1 mph - N/A   Scattered Clouds
12:53 PM 37.0 °F 30.4 °F 30.9 °F 79% 30.20 in 7.0 mi NE 9.2 mph - N/A   Clear
1:53 PM 37.0 °F 30.4 °F 30.9 °F 79% 30.18 in 8.0 mi NE 9.2 mph - N/A   Scattered Clouds
2:00 PM 37.0 °F 30.4 °F 32.0 °F 82% 30.15 in 8.0 mi NE 9.2 mph - N/A   Mostly Cloudy
2:24 PM 37.9 °F 32.1 °F 32.0 °F 79% 30.14 in 8.0 mi NE 8.1 mph - N/A   Scattered Clouds
2:53 PM 37.0 °F 30.4 °F 32.0 °F 82% 30.17 in 8.0 mi NE 9.2 mph - N/A   Partly Cloudy
3:53 PM 37.9 °F 32.7 °F 32.0 °F 79% 30.17 in 8.0 mi East 6.9 mph - N/A   Scattered Clouds
4:00 PM 37.0 °F 31.0 °F 32.0 °F 82% 30.13 in 8.0 mi East 8.1 mph - N/A   Mostly Cloudy
4:13 PM 37.0 °F 31.6 °F 30.9 °F 79% 30.14 in 8.0 mi East 6.9 mph - N/A   Scattered Clouds
4:53 PM 35.1 °F 30.1 °F 30.9 °F 85% 30.17 in 9.0 mi East 5.8 mph - N/A   Clear
5:53 PM 34.0 °F 28.8 °F 30.0 °F 85% 30.16 in 10.0 mi ENE 5.8 mph - N/A   Clear
6:53 PM 30.0 °F 22.4 °F 28.0 °F 92% 30.16 in 6.0 mi NE 8.1 mph - N/A   Clear
7:53 PM 30.0 °F 22.4 °F 28.0 °F 92% 30.14 in 6.0 mi NE 8.1 mph - N/A   Clear
8:53 PM 30.0 °F 21.1 °F 28.0 °F 92% 30.14 in 5.0 mi NE 10.4 mph - N/A   Clear
9:53 PM 30.9 °F 23.5 °F 28.9 °F 92% 30.11 in 7.0 mi NE 8.1 mph - N/A   Clear
10:53 PM 30.9 °F 24.3 °F 28.9 °F 92% 30.09 in 5.0 mi NE 6.9 mph - N/A   Scattered Clouds
11:01 PM 30.9 °F 25.2 °F 28.9 °F 92% 30.07 in 5.0 mi NE 5.8 mph - N/A   Mostly Cloudy
11:09 PM 30.9 °F 25.2 °F 28.9 °F 92% 30.07 in 5.0 mi NE 5.8 mph - N/A   Mostly Cloudy
11:25 PM 30.0 °F 26.5 °F 28.0 °F 92% 30.06 in 4.0 mi NE 3.5 mph - N/A   Scattered Clouds
11:53 PM 28.4 °F 23.3 °F 26.6 °F 93% 30.05 in 3.0 mi NE 4.6 mph - N/A   Clear